AirNav   Pilot Hours Calculator
 
 1284 users online  

9VA5 Bluegrass Heliport
Bluemont, Virginia, USA

GOING TO BLUEMONT?


FAA INFORMATION EFFECTIVE 26 JANUARY 2023

Location

FAA Identifier: 9VA5
Lat/Long: 39-03-47.9160N 077-53-24.1210W
39-03.798600N 077-53.402017W
39.0633100,-77.8900336
(estimated)
Elevation: 1707.4 ft. / 520 m (estimated)
Variation: 10W (2010)
From city: 3 miles E of BLUEMONT, VA
Time zone: UTC -5 (UTC -4 during Daylight Saving Time)
Zip code: 20135

Heliport Operations

Heliport use: Private use. Permission required prior to landing
Activation date: 09/2004
Control tower: no
ARTCC: WASHINGTON CENTER
FSS: LEESBURG FLIGHT SERVICE STATION
NOTAMs facility: FDC (NOTAM-D service not available)
Attendance: UNATNDD
Wind indicator: lighted
Segmented circle: no
Lights: FOR PERIMETER LGTS CALL 540-542-2013.

Heliport Communications

WX AWOS-3 at OKV (13 nm W): 124.85 (540-662-6970)
WX AWOS-3 at JYO (16 nm E): 125.225 (703-777-3781)
WX AWOS-3 at FRR (19 nm SW): 121.85 (540-635-5377)

Nearby radio navigation aids

VOR radial/distance  VOR name  Freq  Var
LDNr056/19.3LINDEN VORTAC114.3006W
MRBr193/19.4MARTINSBURG VORTAC112.1007W
AMLr299/21.2ARMEL VOR/DME113.5008W
CSNr003/25.4CASANOVA VORTAC116.3006W
FDKr237/(31.8)FREDERICK VOR109.0008W
HGRr189/(38.1)HAGERSTOWN VOR109.8007W

 
NDB name  Hdg/Dist  Freq  Var  ID
CAVERNS060/34.924509WLUA .-.. ..- .-
NAILR011/36.535110WMSQ -- ... --.-
GEORGETOWN292/36.632309WGTN --. - -.

Heliport Services

Runway Information

Helipad H1

Dimensions: 50 x 50 ft. / 15 x 15 m
Surface: concrete
Runway edge lights: PERI
Latitude: 39-03.798600N
Longitude: 077-53.402017W
Elevation: 1707.4 ft.
Traffic pattern: leftleft

Heliport Ownership and Management from official FAA records

Ownership: Publicly-owned
Owner: FEMA
19844 BLUE RIDGE MOUNTAIN RD
BLUEMONT, VA 20135
Phone 540-542-3092
Manager: MICHAEL FERRELL
19844 BLUE RIDGE MOUNTAIN RD
BLUEMONT, VA 20135
Phone 540-542-3439

Additional Remarks

50 FT TREES 200 FT W AND 50 FT BLDG 360 FT E OF HELIPAD.
FOR CD CTC POTOMAC APCH AT 866-709-4993.
REMARKS: NORMAL OPR HRS 1245-2130Z++ M-F. AUTH MIL ACFT ONLY, PPR REQUIRED, 540-542-3014
COMMUNICATIONS: ADVISORY 126.2 241.0; POTOMAC APPROACH 120.45 306.925.

Instrument Procedures

NOTE: All procedures below are presented as PDF files. If you need a reader for these files, you should download the free Adobe Reader.

NOT FOR NAVIGATION. Please procure official charts for flight.
FAA instrument procedures published for use from 26 January 2023 at 0901Z to 23 February 2023 at 0900z.

 
IAPs - Instrument Approach Procedures
COPTER RNAV (GPS) 037   download
COPTER VOR/DME OR TACAN 056   download
NOTE: Special Take-Off Minimums/Departure Procedures apply   download (361KB)

Other nearby airports with instrument procedures:

2VG2 - Upperville Airport (6 nm S)
KOKV - Winchester Regional Airport (13 nm W)
KJYO - Leesburg Executive Airport (16 nm E)
KFRR - Front Royal-Warren County Airport (19 nm SW)
KMRB - Eastern WV Regional Airport/Shepherd Field (21 nm N)
 
Loc | Ops | Rwys | IFR | FBO | Links
Com | Nav | Svcs | Stats | Notes
Area around 9VA5 (Bluegrass Heliport)
 
Road maps at: MapQuest Bing Google
 
Aerial photo
No photo
 
Sectional chart

 
Airport distance calculator
Flying to Bluegrass Heliport? Find the distance to fly.

From to 9VA5

Sunrise and sunset
Times for 01-Feb-2023
 Local
(UTC-5)
 Zulu
(UTC)
Morning civil twilight06:5111:51
Sunrise07:1912:19
Sunset17:3122:31
Evening civil twilight17:5922:59

Current date and time
Zulu (UTC)  01-Feb-2023 13:59:00
Local (UTC-5)  01-Feb-2023 08:59:00
 
METAR
KOKV 
13nm W 
011355Z AUTO 33008KT 10SM CLR M02/M09 A3029 RMK AO2
KJYO 
15nm E 
011355Z AUTO 02006KT 10SM CLR 00/M05 A3032 RMK AO2
KFRR 
19nm SW 
011355Z AUTO 35008KT 10SM BKN110 M01/M07 A3028 RMK AO1
KMRB 
21nm N 
011353Z 35011KT 10SM CLR M02/M10 A3031 RMK AO2 SLP269 T10221100
KIAD 
22nm E 
011352Z 35010KT 10SM BKN110 BKN200 M01/M07 A3030 RMK AO2 PRESRR SLP264 T10061072
TAF
KMRB 
21nm N 
011120Z 0112/0212 34010G17KT P6SM BKN060 FM011400 33010G17KT P6SM FEW250 FM012200 31006KT P6SM FEW250 FM020500 VRB03KT P6SM BKN250
KIAD 
22nm E 
011120Z 0112/0218 34008KT P6SM BKN050 FM011300 34010G17KT P6SM BKN050 FM011600 34010G17KT P6SM FEW050 FM012200 34005KT P6SM FEW250 FM020600 VRB03KT P6SM BKN250 FM021400 19008KT P6SM SCT130 BKN200
NOTAMs
Click for the latest NOTAMs
NOTAMs are issued by the DoD/FAA and will open in a separate window not controlled by AirNav.

 

 
 

Would you like to see your business listed on this page?

 If your business provides an interesting product or service to pilots, flight crews, aircraft, or users of the Bluegrass Heliport, you should consider listing it here.  To start the listing process, click on the button below
 
Add a business
 

Other Pages about Bluegrass Heliport

Update a link
 
Copyright © AirNav, LLC. All rights reserved. Privacy Policy  Contact